CYAT

Attawapiskat  Airport

Attawapiskat, Canada
Issued Wind Visibility Ceiling Temperature Dew Point Humidity Barometer
Nov-24
16:00 UTC
  9 miles Overcast
9,300' AGL
-9° C
16° F
-13° C
F
73% 29.33" Hg
993.3 hPa
VFR
Nov-24
15:22 UTC
  6 miles Broken
3,400' AGL
-11° C
12° F
-14° C
F
79% 29.37" Hg
994.7 hPa
VFR
Nov-24
15:00 UTC
  9 miles Broken
5,500' AGL
-11° C
12° F
-15° C
F
73% 29.38" Hg
995.2 hPa
VFR
Nov-24
14:44 UTC
  9 miles Overcast
6,000' AGL
-12° C
10° F
-16° C
F
72% 29.39" Hg
995.6 hPa
VFR
Nov-24
14:00 UTC
  9 miles Broken
7,500' AGL
-13° C
F
-18° C
-0° F
66% 29.42" Hg
996.6 hPa
VFR
Nov-24
13:00 UTC
  9 miles Broken
6,500' AGL
-14° C
F
-19° C
-2° F
66% 29.48" Hg
998.6 hPa
VFR
Nov-24
12:00 UTC
  9 miles Overcast
9,500' AGL
-15° C
F
-20° C
-4° F
66% 29.53" Hg
1000.2 hPa
VFR
Nov-24
11:00 UTC
  9 miles Overcast
11,000' AGL
-16° C
F
-20° C
-4° F
72% 29.55" Hg
1000.8 hPa
VFR
Nov-24
10:00 UTC
  9 miles Broken
11,000' AGL
-18° C
F
-21° C
-6° F
78% 29.61" Hg
1002.8 hPa
VFR
Nov-24
09:00 UTC
  9 miles Overcast
16,000' AGL
-19° C
-2° F
-22° C
-8° F
77% 29.65" Hg
1004.2 hPa
VFR
Nov-24
08:00 UTC
  8 miles Broken
18,000' AGL
-20° C
-4° F
-22° C
-8° F
84% 29.7" Hg
1005.9 hPa
VFR
Nov-24
07:13 UTC
  6 miles Broken
25,000' AGL
-20° C
-4° F
-22° C
-8° F
84% 29.71" Hg
1006.4 hPa
VFR
Nov-24
06:59 UTC
  3 miles   -20° C
-4° F
-22° C
-8° F
84% 29.7" Hg
1006.1 hPa
MVFR
Nov-24
06:32 UTC
  2 1/2 miles   -20° C
-4° F
-22° C
-8° F
84% 29.71" Hg
1006.2 hPa
IFR
Nov-24
06:19 UTC
  5 miles   -19° C
-2° F
-22° C
-8° F
77% 29.71" Hg
1006.2 hPa
MVFR
Nov-24
06:00 UTC
  9 miles   -19° C
-2° F
-22° C
-8° F
77% 29.72" Hg
1006.6 hPa
VFR
Nov-24
05:00 UTC
  9 miles   -18° C
F
-21° C
-6° F
78% 29.72" Hg
1006.6 hPa
VFR
Nov-24
04:00 UTC
  9 miles Broken
3,500' AGL
-16° C
F
-20° C
-4° F
72% 29.73" Hg
1006.9 hPa
VFR
Nov-24
03:00 UTC
  9 miles Overcast
3,700' AGL
-14° C
F
-19° C
-2° F
66% 29.74" Hg
1007.2 hPa
VFR
Nov-24
02:00 UTC
  9 miles Overcast
3,500' AGL
-14° C
F
-19° C
-2° F
66% 29.74" Hg
1007.4 hPa
VFR
Nov-24
01:00 UTC
  9 miles Overcast
3,300' AGL
-14° C
F
-18° C
-0° F
72% 29.74" Hg
1007.4 hPa
VFR
Nov-24
00:00 UTC
  9 miles   -14° C
F
-19° C
-2° F
66% 29.74" Hg
1007.4 hPa
VFR
Nov-23
23:00 UTC
  9 miles   -13° C
F
-17° C
F
72% 29.73" Hg
1007.1 hPa
VFR
Nov-23
22:00 UTC
  9 miles Broken
3,200' AGL
-12° C
10° F
-16° C
F
72% 29.72" Hg
1006.7 hPa
VFR
Nov-23
21:00 UTC
  9 miles   -11° C
12° F
-16° C
F
67% 29.7" Hg
1006.1 hPa
VFR
Nov-23
20:55 UTC
  9 miles   -11° C
12° F
-16° C
F
67% 29.7" Hg
1006 hPa
VFR
Nov-23
20:35 UTC
  9 miles Broken
2,200' AGL
-11° C
12° F
-15° C
F
73% 29.69" Hg
1005.6 hPa
MVFR
Nov-23
20:00 UTC
  9 miles Overcast
2,400' AGL
-10° C
14° F
-14° C
F
73% 29.68" Hg
1005.3 hPa
MVFR
Nov-23
19:56 UTC
  9 miles Overcast
2,400' AGL
-10° C
14° F
-14° C
F
73% 29.68" Hg
1005.2 hPa
MVFR
Nov-23
19:41 UTC
  9 miles Broken
2,400' AGL
-10° C
14° F
-14° C
F
73% 29.68" Hg
1005.1 hPa
MVFR
Nov-23
19:26 UTC
  9 miles Broken
2,600' AGL
-10° C
14° F
-14° C
F
73% 29.67" Hg
1004.9 hPa
MVFR
Nov-23
19:00 UTC
  9 miles Overcast
3,000' AGL
-10° C
14° F
-14° C
F
73% 29.66" Hg
1004.7 hPa
MVFR
Nov-23
18:50 UTC
  9 miles Overcast
2,700' AGL
-10° C
14° F
-14° C
F
73% 29.66" Hg
1004.6 hPa
MVFR
Nov-23
18:49 UTC
  9 miles Broken
2,400' AGL
-10° C
14° F
-14° C
F
73% 29.66" Hg
1004.5 hPa
MVFR
Nov-23
18:32 UTC
  9 miles Broken
2,400' AGL
-10° C
14° F
-14° C
F
73% 29.65" Hg
1004.1 hPa
MVFR
Nov-23
18:00 UTC
  9 miles Broken
2,200' AGL
-9° C
16° F
-14° C
F
67% 29.64" Hg
1003.8 hPa
MVFR
Nov-23
17:58 UTC
  9 miles Broken
2,200' AGL
-9° C
16° F
-14° C
F
67% 29.64" Hg
1003.8 hPa
MVFR
Nov-23
17:42 UTC
  9 miles   -9° C
16° F
-13° C
F
73% 29.64" Hg
1003.8 hPa
VFR
Nov-23
17:32 UTC
  9 miles   -10° C
14° F
-13° C
F
79% 29.64" Hg
1003.9 hPa
VFR
Nov-23
17:00 UTC
  9 miles Overcast
3,400' AGL
-10° C
14° F
-13° C
F
79% 29.64" Hg
1003.8 hPa
VFR